Vertical_Velocity
7 3 3 0 -0 0 1 4 1 6 3 6 1 7 0 2 4 2 18 -1 -2 0 -6 -0 -15 -6 -5 -11 3 11 -9 -6 -1 -6 -5 3 -2 -2 -1 -0 4 -1 -7 -3 -4 -8 -5 -1 -6 -1 1 -5 1 3
2 3 9 5 2 1 1 1 -2 -1 -1 0 0 -0 3 -0 4 5 3 3 -2 -1 7 3 3 11 4 5 6 -4 10 -1 -1 -6 -3 -6 2 1 0 1 -8 -10 8 -5 -1 -1 -8 -2 -4 1 -3 -1 0 -2
1 -3 3 5 5 2 -0 0 -1 1 -0 -2 -3 -4 2 1 6 1 9 2 -6 -1 9 -7 5 -6 -4 0 6 4 9 -1 3 -0 -2 -5 -6 -2 1 3 -0 -0 -5 -6 -7 15 -8 -7 4 -7 -1 5 -4 1
2 -0 -1 -3 -5 -1 1 1 -2 -2 0 -1 -1 1 5 0 5 5 1 9 0 5 -6 9 -3 9 -5 5 -3 2 7 2 1 -0 2 -6 -5 -2 -1 0 -6 7 -6 6 2 8 -8 -3 -6 -7 -8 2 7 4
0 -2 -0 -2 -3 -4 -5 2 -4 -3 -1 -3 -3 -2 1 4 1 9 3 2 -2 1 -8 11 5 -4 5 -4 2 3 4 -0 2 0 -2 -7 -7 -11 1 -6 5 -0 6 -4 14 -7 -6 3 -5 -10 -4 3 1 -1
3 4 4 1 2 1 1 -2 -0 1 -2 2 3 1 1 3 -4 -4 -8 -11 6 10 4 1 -1 -3 6 3 4 -0 -2 2 1 -5 -3 -10 2 -11 -10 -6 7 3 0 1 17 -9 -6 -5 6 -2 -3 1 5 -2
-2 -1 -2 0 1 1 3 3 -0 3 3 6 1 0 0 -1 -8 -9 15 35 17 9 -1 4 -4 -2 1 3 1 1 1 7 0 -4 -1 -7 -1 -8 -10 -6 16 1 6 18 -3 -8 -2 -4 -2 -9 5 -5 3 -1
-1 -0 1 0 -0 2 2 3 5 -3 10 8 5 9 4 3 -2 -27 3 10 7 5 10 -0 -4 0 1 4 9 7 4 1 -2 3 6 -4 -1 -7 -27 7 3 10 20 -1 1 -11 -7 0 -4 4 0 -0 -1 1
1 1 -1 -0 3 1 -1 3 -1 -0 14 10 13 21 13 -31 -25 14 11 13 10 10 -1 -11 3 11 -7 6 1 4 5 -0 8 -3 0 -10 2 -31 16 5 1 23 -8 1 -5 -6 -5 -1 5 -8 7 -3 -3 2
-3 -2 -3 -1 7 5 -1 1 0 8 6 26 16 -18 -28 -9 9 12 5 2 12 -0 1 -10 5 -0 -3 2 4 5 2 -0 -7 3 -8 -21 -8 3 -2 1 9 9 -9 -3 -0 5 -3 -6 -3 -4 6 -2 0 0
4 5 -2 -1 5 -3 1 -0 6 7 13 -13 -11 2 12 6 13 3 1 -0 5 0 -12 5 -1 -7 1 6 3 -4 -4 -3 -11 2 -10 -14 -8 3 9 7 -6 -4 -5 -0 -6 1 0 2 -5 2 3 -0 -3 1
0 5 10 -2 13 8 1 1 -0 0 -3 -3 -0 8 9 10 1 3 8 6 2 0 -10 -8 7 7 9 5 2 5 -0 -3 -10 -5 -16 -24 16 10 23 -10 -8 -4 -3 0 -2 -2 -3 -6 -3 3 1 -0 0 -2
0 -1 -1 -0 1 12 22 6 5 18 5 9 7 2 15 -6 2 1 -10 1 -19 -24 -17 0 -11 3 2 7 -4 2 -11 -3 -6 -21 -20 7 5 43 -21 -11 -5 -4 -1 -6 0 -3 3 -9 6 2 0 -0 -3 1
0 1 1 -0 -0 7 10 19 5 -2 13 9 5 -2 -7 21 -12 -22 -22 -15 1 -7 -0 6 8 3 2 11 3 -6 -0 -0 -33 -23 7 -0 45 -23 -14 -1 1 -4 -5 -3 -3 -2 0 -5 9 3 -2 -1 -2 2
1 2 4 1 -1 0 8 3 3 6 14 -5 11 -6 -23 -11 -15 0 1 4 0 2 1 1 8 -2 3 -8 -10 3 -12 -23 -20 6 35 15 -18 -9 -1 -7 -5 -2 -2 -5 -3 2 3 -1 1 1 2 1 4 -1
4 8 -5 2 -1 1 1 49 31 -2 6 36 -18 -20 -18 -5 -4 -6 -2 1 2 6 1 3 1 -6 -1 -9 6 -8 -3 -25 50 3 -4 -8 -9 -10 -9 -7 -6 -5 -5 -6 7 -0 -1 3 -1 -3 -2 7 -1 2
3 -23 -6 -2 0 1 27 64 5 -5 -12 -12 -9 -2 -4 -1 11 13 11 15 17 4 3 1 1 -4 0 -0 -1 -14 4 11 4 -0 -4 -5 -5 -6 -6 -2 -3 -3 1 2 7 -1 0 2 -2 -2 4 -5 4 3
2 7 5 -1 -5 51 27 -10 -6 -14 9 -3 -1 -12 5 10 10 7 4 12 -12 -2 5 -13 7 -10 -0 1 -1 6 1 10 -3 -3 -5 -3 -3 -6 1 3 3 2 4 0 1 2 -4 -1 1 3 -0 3 2 3
3 -3 -1 1 -6 -12 -17 -9 3 -1 15 -11 1 -0 -4 1 10 9 23 13 4 10 10 11 2 -19 -22 -5 -3 2 3 3 1 -5 -1 -1 -4 0 -2 6 0 -1 -4 -0 -1 -1 1 3 0 1 0 2 5 2
2 5 3 -4 5 5 -2 -5 3 2 -3 -8 -5 -3 19 8 10 1 3 21 14 5 -8 -24 -10 0 2 9 5 3 2 -3 -2 -2 2 4 3 2 3 -2 -5 -2 0 -1 1 4 2 -1 0 1 2 2 0 2
3 -2 8 2 -1 1 -2 -2 -7 39 -10 -25 1 -3 9 8 -2 -0 5 16 10 -3 -3 1 6 5 -1 6 2 0 5 1 1 5 -0 2 -2 -1 2 -0 -0 1 1 2 2 -1 -2 1 4 2 2 1 -0 1
-3 3 -5 4 29 2 -1 5 2 -0 3 -9 -3 -4 -9 -4 0 -1 -1 -3 0 9 8 6 2 2 0 0 1 0 -2 -2 3 -0 0 1 1 1 0 1 1 0 1 -1 -2 -1 2 4 1 0 -1 1 2 0
0 2 11 24 8 -1 1 -3 -4 -8 -17 -12 -11 -7 -8 -4 -2 -2 -8 -3 3 5 4 -1 -1 6 0 2 1 0 -2 -1 -2 -2 -2 -0 1 1 -0 0 1 -1 -1 -3 -0 3 1 4 -0 -3 2 1 1 0
18 -8 5 -0 -5 -3 24 -6 11 15 5 3 1 -2 -6 -4 -2 -6 -4 6 0 -2 3 4 0 1 2 2 3 1 -3 -2 -2 2 1 0 1 1 0 0 -0 -3 -1 3 -2 -1 3 0 1 1 1 0 0 0
-3 13 9 1 23 26 -0 1 -6 -6 -9 -4 -3 -4 0 -1 -3 -5 -4 6 0 0 1 1 2 0 -1 -1 -2 -1 0 1 2 2 1 1 2 1 -1 -1 1 0 -0 -3 0 4 -1 -0 0 0 1 1 1 -1
17 -8 -4 3 -5 -4 4 -2 1 -9 -3 -2 -6 0 0 -0 -3 -5 0 3 2 1 2 2 0 -1 -0 -1 -2 0 5 -0 0 2 3 -1 1 -1 0 -1 -2 -0 -1 1 4 2 -2 -1 -1 0 1 1 0 1
23 -16 -10 -10 -4 1 5 2 -1 -3 -3 -5 2 6 1 -3 -0 -2 4 -1 -1 2 1 -3 -3 -2 -2 -3 -1 2 3 2 -2 -0 4 -2 1 -0 -0 0 0 3 6 2 -4 -1 -1 -1 1 1 1 1 1 2
-3 -6 -7 -1 -3 3 -3 -0 4 3 -3 -3 -0 -7 -3 -4 -4 4 2 -0 -0 -2 -3 -3 -3 -1 -0 2 6 -1 -1 1 0 1 1 0 -1 -2 -0 2 2 -3 -1 -0 -1 -1 0 1 0 -1 -0 1 1 1
0 -0 -3 -4 -1 -3 -4 -7 -3 -0 2 -2 -3 -3 -4 0 4 1 1 -0 0 -1 -0 -1 -1 -0 -3 0 1 4 0 0 -1 1 -2 -3 -0 1 -0 -1 0 1 3 2 1 0 0 0 0 2 2 1 1 1
2 3 2 -0 -2 -2 -1 0 3 1 -2 -2 -2 -6 -6 -1 2 -2 -2 1 1 -0 1 -1 -1 -1 1 0 2 -2 -2 1 0 -2 -1 -1 -4 -3 -2 -1 1 2 2 -1 -0 1 1 1 0 -1 -1 -0 -0 0
-3 -3 -3 -1 -1 0 -2 -3 -2 -3 -4 -1 -3 -4 -4 -4 -2 -2 -3 -0 1 -1 -2 0 -3 -2 -3 -2 -2 -1 -0 1 -1 -2 2 8 8 3 1 1 2 1 1 1 1 1 0 -0 1 1 1 0 1 2
1 0 -2 -2 1 -3 -2 -2 -2 -2 -3 -4 -3 2 -7 -1 -2 -1 1 3 0 -1 -0 -1 -1 -1 -1 -1 -1 -2 -1 -1 -2 -2 -3 -1 0 1 1 1 1 1 1 1 0 0 1 1 0 0 1 1 1 1
-2 1 0 -2 -3 -1 0 -0 -2 -2 -0 0 1 2 0 0 -1 1 -0 -2 -2 -1 -1 -1 -1 -1 1 1 1 1 1 3 4 4 3 1 1 2 2 2 1 1 -0 -0 1 1 1 1 0 0 0 1 1 0
Height
5399 5408 5416 5428 5440 5453 5464 5474 5484 5492 5501 5511 5521 5531 5541 5551 5562 5571 5580 5585 5595 5605 5613 5622 5628 5635 5644 5650 5658 5668 5671 5674 5678 5681 5683 5689 5693 5696 5699 5701 5703 5705 5705 5707 5707 5706 5710 5713 5709 5709 5709 5706 5705 5703
5390 5401 5410 5420 5432 5444 5455 5466 5476 5485 5493 5503 5512 5521 5530 5539 5551 5559 5568 5574 5582 5592 5605 5611 5621 5628 5635 5643 5650 5654 5660 5664 5669 5672 5677 5680 5684 5687 5690 5692 5693 5695 5700 5699 5701 5701 5703 5702 5700 5701 5700 5698 5696 5694
5381 5392 5403 5413 5423 5435 5445 5457 5467 5476 5485 5495 5502 5512 5520 5528 5538 5550 5556 5563 5571 5582 5589 5598 5606 5613 5621 5629 5636 5645 5648 5652 5657 5661 5665 5669 5671 5677 5680 5684 5687 5687 5687 5688 5691 5695 5695 5692 5692 5692 5690 5690 5686 5684
5371 5382 5393 5404 5415 5425 5436 5447 5457 5467 5477 5485 5494 5501 5509 5518 5528 5537 5546 5554 5560 5571 5577 5588 5593 5601 5609 5616 5623 5630 5636 5641 5645 5650 5654 5658 5661 5666 5669 5674 5676 5678 5679 5681 5682 5687 5686 5684 5682 5682 5679 5680 5678 5675
5358 5369 5381 5392 5402 5414 5425 5436 5448 5459 5468 5477 5486 5494 5501 5509 5516 5525 5533 5542 5552 5560 5568 5574 5581 5586 5594 5602 5610 5616 5623 5629 5634 5638 5642 5647 5651 5655 5659 5662 5666 5668 5671 5672 5675 5677 5677 5676 5674 5672 5670 5669 5668 5665
5348 5358 5368 5380 5391 5402 5412 5424 5436 5447 5459 5470 5478 5486 5493 5499 5504 5513 5525 5538 5547 5550 5555 5560 5568 5574 5582 5590 5598 5605 5611 5616 5621 5625 5630 5635 5641 5644 5647 5653 5657 5659 5660 5660 5668 5666 5666 5665 5665 5662 5660 5659 5659 5655
5341 5350 5361 5371 5381 5390 5401 5413 5425 5438 5448 5459 5469 5477 5485 5490 5497 5511 5525 5534 5535 5537 5544 5550 5556 5565 5573 5580 5587 5595 5601 5606 5610 5613 5618 5624 5629 5632 5637 5643 5649 5649 5648 5655 5657 5655 5655 5654 5654 5651 5652 5649 5650 5647
5334 5343 5352 5362 5372 5381 5391 5402 5415 5429 5441 5451 5460 5468 5477 5484 5490 5499 5511 5518 5522 5530 5534 5538 5549 5557 5564 5572 5579 5585 5590 5594 5599 5603 5609 5614 5619 5621 5629 5636 5636 5638 5641 5645 5646 5644 5643 5644 5643 5643 5643 5641 5639 5637
5330 5339 5347 5356 5365 5374 5384 5395 5407 5420 5433 5444 5452 5459 5463 5469 5483 5497 5500 5508 5514 5521 5524 5531 5542 5550 5555 5563 5569 5575 5579 5583 5588 5592 5599 5603 5608 5612 5624 5624 5625 5629 5631 5632 5630 5634 5635 5635 5634 5631 5634 5632 5630 5628
5326 5334 5343 5351 5360 5370 5378 5389 5400 5412 5426 5434 5437 5444 5451 5465 5480 5485 5489 5496 5503 5507 5514 5523 5533 5541 5549 5556 5561 5567 5570 5574 5578 5586 5588 5592 5602 5608 5610 5611 5616 5617 5618 5618 5622 5625 5625 5624 5623 5622 5624 5621 5619 5618
5325 5333 5341 5349 5357 5365 5375 5384 5394 5405 5414 5419 5426 5436 5453 5463 5468 5470 5479 5485 5491 5496 5504 5521 5526 5536 5545 5550 5553 5556 5560 5564 5568 5577 5579 5585 5594 5597 5600 5600 5602 5604 5608 5609 5610 5612 5614 5613 5612 5612 5613 5611 5610 5608
5321 5330 5338 5346 5353 5363 5371 5380 5389 5396 5406 5416 5428 5439 5447 5450 5455 5462 5467 5472 5480 5490 5504 5516 5526 5530 5537 5541 5546 5549 5552 5554 5560 5565 5569 5577 5584 5585 5587 5591 5593 5593 5594 5597 5598 5600 5601 5602 5602 5602 5601 5600 5600 5598
5319 5327 5336 5344 5352 5360 5369 5378 5386 5396 5406 5416 5422 5430 5437 5439 5442 5446 5453 5462 5474 5492 5504 5512 5514 5521 5527 5532 5534 5538 5541 5542 5548 5553 5559 5567 5570 5573 5575 5577 5580 5583 5583 5584 5585 5587 5588 5589 5590 5592 5590 5590 5590 5589
5317 5325 5334 5342 5351 5359 5368 5377 5384 5393 5403 5409 5415 5421 5424 5427 5433 5445 5458 5471 5487 5493 5499 5505 5510 5514 5519 5521 5524 5528 5530 5534 5539 5548 5552 5552 5559 5562 5562 5564 5566 5568 5569 5572 5572 5573 5575 5576 5578 5579 5579 5580 5579 5579
5314 5322 5330 5339 5348 5358 5367 5376 5383 5391 5396 5403 5410 5414 5421 5433 5441 5453 5464 5474 5480 5487 5494 5498 5500 5505 5509 5511 5514 5514 5518 5520 5532 5539 5540 5542 5546 5546 5549 5553 5556 5559 5559 5560 5561 5563 5564 5565 5566 5567 5569 5570 5570 5570
5309 5317 5325 5336 5346 5355 5365 5373 5381 5388 5395 5401 5405 5414 5424 5432 5441 5448 5457 5465 5472 5479 5484 5486 5489 5492 5494 5500 5499 5504 5504 5517 5528 5523 5525 5531 5537 5541 5544 5545 5547 5549 5550 5550 5551 5553 5553 5555 5556 5557 5560 5561 5560 5561
5303 5313 5323 5334 5344 5353 5360 5369 5376 5383 5390 5395 5404 5413 5419 5431 5437 5444 5453 5458 5465 5468 5471 5476 5479 5482 5486 5485 5489 5494 5504 5515 5516 5518 5520 5524 5527 5529 5533 5536 5538 5539 5539 5539 5543 5543 5544 5547 5549 5550 5551 5551 5553 5552
5302 5312 5322 5332 5341 5348 5357 5365 5374 5380 5383 5389 5402 5413 5419 5426 5431 5438 5445 5452 5455 5461 5465 5471 5476 5476 5477 5480 5489 5498 5500 5504 5507 5509 5511 5514 5516 5518 5521 5523 5524 5526 5529 5532 5534 5536 5538 5540 5541 5543 5543 5544 5543 5542
5303 5311 5320 5329 5339 5347 5355 5363 5371 5376 5385 5391 5404 5414 5419 5424 5429 5435 5442 5447 5453 5457 5460 5462 5462 5466 5475 5482 5485 5490 5493 5495 5497 5500 5503 5506 5508 5510 5511 5513 5515 5518 5521 5524 5526 5529 5531 5532 5535 5536 5535 5535 5534 5534
5304 5313 5321 5331 5340 5348 5354 5361 5370 5379 5384 5392 5404 5410 5415 5420 5425 5430 5436 5442 5447 5450 5451 5455 5462 5466 5470 5476 5480 5482 5485 5488 5490 5491 5493 5497 5500 5502 5504 5507 5510 5511 5514 5516 5519 5521 5523 5526 5527 5527 5526 5526 5526 5526
5307 5313 5323 5332 5340 5349 5354 5359 5369 5374 5381 5392 5399 5405 5412 5417 5423 5428 5433 5438 5441 5445 5448 5452 5457 5460 5464 5468 5470 5474 5477 5479 5481 5484 5487 5491 5493 5496 5499 5501 5503 5505 5507 5509 5512 5515 5517 5518 5518 5518 5519 5519 5519 5519
5310 5319 5326 5334 5343 5349 5357 5363 5369 5378 5384 5393 5401 5406 5412 5417 5422 5426 5430 5431 5435 5441 5445 5449 5451 5454 5457 5460 5463 5466 5469 5472 5476 5479 5482 5486 5487 5490 5492 5494 5496 5498 5501 5504 5506 5508 5509 5509 5510 5510 5511 5512 5512 5511
5315 5323 5331 5339 5347 5353 5361 5366 5374 5382 5388 5393 5399 5404 5409 5413 5417 5421 5422 5427 5434 5438 5442 5444 5446 5449 5451 5454 5456 5460 5463 5467 5470 5473 5476 5478 5481 5483 5485 5487 5490 5493 5495 5497 5499 5499 5501 5502 5502 5503 5504 5505 5505 5504
5321 5327 5334 5341 5347 5354 5358 5365 5371 5378 5384 5390 5395 5399 5403 5408 5413 5414 5420 5427 5430 5433 5438 5441 5442 5444 5447 5450 5454 5457 5459 5462 5464 5468 5470 5472 5476 5478 5480 5482 5485 5486 5488 5488 5491 5493 5493 5494 5496 5497 5498 5498 5498 5497
5325 5331 5338 5341 5348 5354 5358 5365 5372 5377 5382 5388 5393 5397 5400 5406 5409 5412 5417 5423 5425 5429 5433 5435 5438 5440 5443 5445 5447 5450 5454 5457 5459 5462 5466 5468 5471 5473 5475 5476 5478 5480 5480 5483 5483 5485 5487 5489 5491 5491 5492 5492 5491 5490
5329 5334 5337 5342 5348 5353 5359 5365 5372 5378 5384 5388 5391 5396 5399 5402 5405 5409 5414 5418 5421 5424 5428 5431 5433 5435 5437 5440 5442 5446 5450 5452 5454 5457 5461 5462 5465 5467 5469 5471 5472 5473 5474 5476 5478 5481 5483 5484 5485 5485 5485 5485 5484 5483
5330 5336 5342 5347 5351 5357 5361 5366 5370 5375 5380 5386 5392 5396 5397 5398 5402 5407 5411 5413 5416 5421 5423 5424 5426 5429 5432 5434 5437 5441 5445 5447 5448 5451 5454 5455 5458 5460 5462 5465 5467 5470 5473 5474 5476 5478 5478 5479 5479 5479 5478 5477 5476 5474
5333 5338 5345 5351 5355 5358 5363 5367 5371 5375 5378 5382 5387 5388 5391 5393 5397 5403 5406 5409 5411 5413 5416 5418 5421 5424 5426 5429 5433 5435 5437 5439 5442 5445 5447 5449 5452 5454 5457 5460 5464 5466 5469 5471 5471 5472 5473 5473 5473 5472 5470 5469 5467 5466
5336 5340 5344 5348 5352 5355 5359 5363 5367 5371 5375 5378 5381 5384 5388 5391 5394 5397 5399 5401 5404 5407 5410 5412 5414 5416 5419 5422 5424 5427 5430 5433 5435 5438 5441 5445 5447 5450 5453 5456 5460 5462 5464 5466 5466 5467 5467 5467 5465 5464 5462 5461 5459 5458
5336 5340 5343 5346 5350 5353 5357 5361 5365 5368 5370 5374 5377 5379 5382 5384 5386 5389 5392 5395 5397 5400 5403 5405 5407 5409 5412 5414 5417 5420 5423 5425 5428 5434 5436 5439 5442 5446 5449 5452 5455 5458 5460 5461 5461 5461 5460 5459 5458 5456 5455 5453 5451 5449
5334 5337 5341 5343 5347 5350 5353 5355 5358 5361 5364 5367 5370 5374 5376 5377 5379 5382 5384 5387 5389 5392 5394 5396 5399 5401 5404 5407 5410 5413 5416 5421 5426 5429 5434 5439 5442 5445 5447 5449 5452 5454 5454 5454 5454 5454 5453 5452 5451 5449 5447 5445 5442 5439
5331 5334 5336 5339 5342 5344 5347 5349 5352 5355 5357 5360 5363 5366 5369 5370 5373 5375 5378 5379 5381 5383 5385 5389 5392 5396 5399 5403 5407 5412 5416 5419 5422 5426 5431 5435 5438 5441 5444 5446 5447 5447 5447 5447 5447 5447 5446 5444 5443 5441 5439 5436 5433 5430
5326 5328 5330 5332 5334 5337 5340 5342 5345 5347 5350 5353 5356 5358 5361 5363 5365 5368 5370 5371 5374 5377 5381 5385 5389 5393 5397 5401 5405 5409 5414 5418 5423 5427 5430 5433 5436 5438 5439 5440 5440 5440 5441 5440 5440 5439 5438 5436 5435 5433 5430 5427 5424 5421